Starlink 31995

operational
NORAD ID: 59958 Int'l Des: 2024-107 Owner: SPXS Country: US Constellation: starlink
LEOCIRCULAR

Über Starlink 31995

Beschreibung wird geladen...

Live-Position

3D-Globus wird geladen...

Nächste Überflüge

Höhenverlauf

Altitude vs Time

uPlot chart will show altitude changes over time

Zweizeiliger Elementsatz

1 59958U 24107P 25260.90895179 .00001720 00000-0 70160-4 0 9991
2 59958 53.1602 148.0352 0000974 86.2251 273.8862 15.30203717 72141
Epoch: 17. Sept. 2025 • Age: 22 hours

Aktueller Status

Höhe 489.5 km
Geschwindigkeit 7.62 km/s
Subsatellitenpunkt -41.51°S, 171.84°E
Startdatum 5. Juni 2024
Alter 1.2 years
Typ internet

Technische Details

Klassifizierung Payload
Masse 730.00 kg
Trockenmasse 700.00 kg
Gesamtmasse 730.00 kg
Länge 0.30 m
Durchmesser 4.10 m
Spannweite 29.00 m
Form Box + pan
Hersteller SPXS
Bus-Typ Starlink V2M
Phasenstatus In Orbit
Besitzer/Staat SPXS/US

Große Konstellationen

Loading constellations...